G7VHX Weather Reports


Display with metric or nautical units.
time (UTC)temp
F
wind
direction
speed
MPH
gust
MPH
rain 1hr
in
rain 24hr
in
rain mn
in
humidity
%
barometer
mb
20210620183039 61 3 0.0 0.0 0.00 0.09 0.01 81 1010.0
20210620181559 61 332 0.0 0.0 0.00 0.09 0.01 81 1010.0
20210620180126 61 9 0.0 0.0 0.00 0.09 0.01 81 1009.8
20210620174658 61 19 0.0 0.0 0.00 0.09 0.01 80 1009.7
20210620173120 62 339 0.0 0.0 0.00 0.09 0.01 81 1009.6
20210620171556 62 344 0.0 0.0 0.00 0.09 0.01 81 1009.3
20210620170051 62 29 0.0 0.0 0.00 0.09 0.01 80 1009.2
20210620164623 62 17 0.0 0.0 0.00 0.09 0.01 80 1009.3
20210620163041 63 328 0.0 0.0 0.00 0.09 0.01 81 1009.4
20210620161631 63 4 0.0 0.0 0.00 0.09 0.01 80 1009.3
20210620160115 63 325 0.0 0.0 0.00 0.09 0.01 81 1009.4
20210620154617 62 5 0.0 0.0 0.00 0.09 0.01 81 1009.3
20210620153034 62 51 0.0 0.0 0.00 0.09 0.01 81 1009.5
20210620151557 62 351 0.0 0.0 0.00 0.09 0.01 81 1009.4
20210620150108 63 343 0.0 0.0 0.00 0.09 0.01 81 1009.4
20210620144553 63 339 0.0 0.0 0.00 0.09 0.01 81 1009.4
20210620143035 62 351 0.0 0.0 0.00 0.09 0.01 81 1009.7
20210620141527 62 354 0.0 0.0 0.00 0.09 0.01 82 1009.8
20210620140027 61 353 0.0 0.0 0.00 0.09 0.01 82 1009.9
20210620134549 62 352 0.0 0.0 0.00 0.09 0.01 82 1010.0
20210620133025 62 352 0.0 0.0 0.00 0.09 0.01 82 1009.9
20210620131522 62 358 0.0 0.0 0.00 0.09 0.01 82 1009.8
20210620130023 61 2 0.0 0.0 0.00 0.09 0.01 82 1009.9
20210620124516 61 3 0.0 0.0 0.00 0.09 0.01 82 1009.8
20210620123013 61 348 0.0 0.0 0.00 0.09 0.01 83 1009.8
20210620121516 61 3 0.0 0.0 0.00 0.09 0.01 83 1009.8
20210620120013 60 4 0.0 0.0 0.00 0.09 0.01 83 1009.8
20210620114542 60 337 0.0 0.0 0.00 0.09 0.01 83 1009.8
20210620113010 60 337 0.0 0.0 0.00 0.09 0.01 84 1009.8
20210620111504 59 9 0.0 0.0 0.00 0.09 0.01 84 1009.9
20210620110003 59 354 0.0 0.0 0.00 0.09 0.01 84 1010.0
20210620104501 59 352 0.0 0.0 0.00 0.09 0.01 84 1010.0
20210620103128 58 354 0.0 0.0 0.00 0.09 0.01 84 1010.0
20210620101742 58 356 0.0 0.0 0.00 0.09 0.01 84 1010.1
20210620100127 57 22 0.0 0.0 0.00 0.09 0.01 84 1010.1
20210620094628 57 22 0.0 0.0 0.00 0.09 0.01 84 1010.1
20210620093456 57 22 0.0 0.0 0.00 0.09 0.01 85 1010.1
20210620091644 57 22 0.0 0.0 0.00 0.09 0.01 85 1010.1
20210620090206 57 22 0.0 0.0 0.00 0.09 0.01 85 1010.1
20210620084642 57 22 0.0 0.0 0.00 0.09 0.01 85 1010.0
20210620083119 56 22 0.0 0.0 0.00 0.09 0.01 85 1010.0
20210620081638 56 22 0.0 0.0 0.00 0.09 0.01 85 1010.1
20210620080139 56 22 0.0 0.0 0.00 0.09 0.01 85 1009.9
20210620074702 56 22 0.0 0.0 0.00 0.09 0.01 85 1009.8
20210620073309 56 22 0.0 0.0 0.00 0.09 0.01 85 1009.7
20210620071700 56 22 0.0 0.0 0.00 0.09 0.01 85 1009.6
20210620070119 56 22 0.0 0.0 0.00 0.09 0.01 85 1009.4
20210620064554 56 18 0.0 0.0 0.00 0.09 0.01 85 1009.2
20210620063106 56 18 0.0 0.0 0.00 0.09 0.01 85 1009.3
20210620061619 55 18 0.0 0.0 0.00 0.09 0.01 85 1009.3
20210620060126 55 19 0.0 0.0 0.00 0.09 0.01 85 1009.3
20210620054555 55 19 0.0 0.0 0.00 0.09 0.01 85 1009.4
20210620053140 55 19 0.0 0.0 0.00 0.09 0.01 85 1009.4
20210620051612 55 19 0.0 0.0 0.00 0.09 0.01 85 1009.4
20210620050113 55 19 0.0 0.0 0.00 0.09 0.01 85 1009.4
20210620044546 55 19 0.0 0.0 0.00 0.09 0.01 85 1009.5
20210620043144 55 19 0.0 0.0 0.00 0.09 0.01 85 1009.3
20210620041558 55 27 0.0 0.0 0.00 0.09 0.01 85 1009.2
20210620040111 55 27 0.0 0.0 0.00 0.09 0.01 85 1009.2
20210620034601 55 12 0.0 0.0 0.00 0.09 0.01 85 1009.2
20210620033147 55 12 0.0 0.0 0.00 0.09 0.01 85 1009.2
20210620031617 55 12 0.0 0.0 0.00 0.09 0.01 85 1009.3
20210620030111 55 12 0.0 0.0 0.00 0.09 0.01 85 1009.4
20210620024629 55 12 0.0 0.0 0.00 0.09 0.01 85 1009.3
20210620023120 55 17 0.0 0.0 0.00 0.09 0.01 85 1009.3
20210620021614 55 24 0.0 0.0 0.00 0.09 0.01 85 1009.3
20210620020112 55 355 0.0 0.0 0.00 0.09 0.01 85 1009.5
20210620014535 55 360 0.0 0.0 0.00 0.09 0.01 85 1009.7
20210620013128 55 360 0.0 0.0 0.00 0.09 0.01 85 1009.8
20210620011710 55 357 0.0 0.0 0.00 0.09 0.01 85 1010.0
20210620010040 55 7 0.0 0.0 0.00 0.09 0.01 85 1010.1
20210620004556 55 5 0.0 0.0 0.00 0.09 0.01 85 1010.1
20210620003053 55 1 0.0 0.0 0.00 0.09 0.01 85 1010.2
20210620001554 55 1 0.0 0.0 0.00 0.09 0.01 85 1010.3
20210620000021 55 1 0.0 0.0 0.01 0.09 0.01 85 1010.3
20210619234526 56 5 0.0 0.0 0.01 0.09 0.01 85 1010.5
20210619233039 56 3 0.0 0.0 0.01 0.09 0.01 85 1010.6
20210619231518 56 3 0.0 0.0 0.01 0.09 0.01 85 1010.8
20210619230019 56 7 0.0 0.0 0.00 0.09 0.00 85 1011.1
20210619224512 56 358 0.0 0.0 0.00 0.09 0.09 85 1011.2
20210619223008 56 358 0.0 0.0 0.01 0.09 0.09 85 1011.1
20210619221507 57 359 0.0 0.0 0.03 0.09 0.09 85 1011.2
20210619220014 57 27 0.0 0.0 0.06 0.09 0.09 85 1011.2
20210619214523 57 27 0.0 0.0 0.06 0.09 0.09 84 1011.2
20210619213005 57 27 0.0 0.0 0.05 0.08 0.08 84 1011.4
20210619211504 57 27 0.0 0.0 0.03 0.06 0.06 84 1011.6
20210619210003 57 27 0.0 0.0 0.02 0.03 0.03 84 1011.7
20210619204502 57 27 0.0 0.0 0.02 0.03 0.03 84 1011.5
20210619203011 57 27 0.0 0.0 0.03 0.03 0.03 84 1011.5
20210619201506 58 27 0.0 0.0 0.02 0.02 0.02 84 1011.8
20210619200232 58 342 0.0 0.0 0.02 0.02 0.02 84 1011.6
20210619194801 58 350 0.0 0.0 0.01 0.01 0.01 84 1011.8
20210619193133 58 46 0.0 0.0 0.00 0.00 0.00 84 1011.5
20210619191645 58 331 0.0 0.0 0.00 0.00 0.00 83 1011.5
20210619190127 58 58 0.0 0.0 0.00 0.00 0.00 83 1011.5
20210619184651 59 171 0.0 0.0 0.00 0.00 0.00 83 1011.7